Welcome to the New NWS' Forecast!
Most changes are behind the scenes, but click here for differences you might notice.
Latest weather observations around

CW2285 Thousand Palms (C2285)

Using English Units (Switch to International System of Units)
Date/ Time (PDT) Wind (mph) Vis. (mi) Weather Sky Cond. Temp (°F) Rel. Humidity Wind Chill (°F) Heat Index (°F) Pressure Precip. (in)
Air Dwpt 6 hour Altimeter (inHg) Sea level (inHg) 1 hr 3 hr 6 hr
Max Min
Oct 23 11:20 NNW 1   Clear   96 25     8%   90 30.1        
Oct 23 11:15 NNW 3   Clear   96 25     8%   90 30.11        
Oct 23 11:10 NNW 2   Clear   96 25     8%   90 30.11        
Oct 23 11:05 NNW 4   Clear   96 28     9%   90 30.11        
Oct 23 11:00 NNW 2   Clear   95 30     10%   89 30.11        
Oct 23 10:55 NNW 2   Clear   95 30     10%   89 30.11        
Oct 23 10:50 NNW 2   Clear   95 30     10%   89 30.11        
Oct 23 10:45 NNW 2   Clear   95 30     10%   89 30.11        
Oct 23 10:40 NNW 2   Clear   94 29     10%   89 30.11        
Oct 23 10:35 NNW 3   Clear   94 31     11%   89 30.11        
Oct 23 10:30 NNW 2   Clear   93 28     10%   88 30.11        
Oct 23 10:25 NNW 4   Clear   93 33     12%   88 30.11        
Oct 23 10:20 NNW 3   Clear   93 31     11%   88 30.12        
Oct 23 10:15 NNW 2   Clear   93 31     11%   88 30.12        
Oct 23 10:10 NNW 4   Clear   92 30     11%   87 30.12        
Oct 23 10:05 NNW 2   Clear   92 34     13%   88 30.12        
Oct 23 10:00 NNW 3   Clear   91 31     12%   87 30.13        
Oct 23 09:55 NNW 3   Clear   91 33     13%   87 30.13        
Notice The following observation data may not be complete
Oct 23 09:15 NNW 1   Clear     40      %     30.13        
Notice The following observation data may not be complete
Oct 23 09:10 NNW 1   Clear     39      %     30.13        
Notice The following observation data may not be complete
Oct 23 09:05 NNW 1   Clear     37      %     30.13        
Notice The following observation data may not be complete
Oct 23 09:00 NNW 1   Clear     37      %     30.13        
Oct 23 08:05 NNW 2   Clear   73 34     24%   71 30.11        
Oct 23 08:00 NNW 2   Clear   73 33     23%   71 30.11        
Oct 23 07:55 NNW 1   Clear   73 34     24%   71 30.11        
Oct 23 07:50 NNW 2   Clear   73 33     23%   71 30.11        
Oct 23 07:45 NNW 2   Clear   72 32     23%   70 30.11        
Oct 23 07:40 Calm   Clear   71 32     24%   69 30.11        
Oct 23 07:35 NNW 2   Clear   71 34     26%   69 30.11        
Oct 23 07:30 NNW 2   Clear   71 32     24%   69 30.11        
Oct 23 07:25 NNW 3   Clear   71 33     25%   69 30.11        
Oct 23 07:20 NNW 3   Clear   71 32     24%   69 30.1        
Oct 23 07:15 NNW 5   Clear   71 32     24%   69 30.1        
Oct 23 07:10 NNW 3   Clear   70 33     25%     30.1        
Oct 23 07:05 NNW 2   Clear   70 34     26%     30.1        
Oct 23 07:00 NNW 2   Clear   70 33     25%     30.09        
Oct 23 06:55 NNW 3   Clear   70 33     25%     30.09        
Oct 23 06:50 NNW 2   Clear   71 32     24%   69 30.09        
Oct 23 06:45 NNW 3   Clear   71 32     24%   69 30.09        
Oct 23 06:40 NNW 2   Clear   71 32     24%   69 30.09        
Oct 23 06:35 NNW 1   Clear   72 32     23%   70 30.09        
Oct 23 06:30 Calm   Clear   72 33     24%   70 30.09        
Oct 23 06:25 Calm   Clear   72 33     24%   70 30.09        
Oct 23 06:20 NNW 1   Clear   72 32     23%   70 30.09        
Oct 23 06:15 NNW 2   Clear   71 32     24%   69 30.09        
Oct 23 06:10 NNW 1   Clear   72 33     24%   70 30.08        
Oct 23 06:05 NNW 1   Clear   71 32     24%   69 30.08        
Oct 23 06:00 NNW 3   Clear   71 32     24%   69 30.08        
Oct 23 05:55 NNW 2   Clear   71 32     24%   69 30.08        
Oct 23 05:50 NNW 3   Clear   72 32     23%   70 30.08        
Oct 23 05:45 NNW 1   Clear   73 32     22%   71 30.08        
Oct 23 05:40 NNW 2   Clear   74 33     22%   72 30.08        
Oct 23 05:35 NNW 5   Clear   73 32     22%   71 30.08        
Oct 23 05:30 NNW 3   Clear   72 32     23%   70 30.08        
Oct 23 05:25 NNW 1   Clear   70 32     24%     30.07        
Oct 23 05:20 NNW 1   Clear   70 34     26%     30.07        
Oct 23 05:15 NNW 3   Clear   69 33     26%     30.07        
Oct 23 05:10 NNW 1   Clear   68 32     26%     30.07        
Oct 23 05:05 NNW 2   Clear   69 33     26%     30.07        
Oct 23 05:00 NNW 1   Clear   68 33     27%     30.07        
Oct 23 04:55 NNW 1   Clear   68 32     26%     30.07        
Oct 23 04:50 NNW 2   Clear   68 32     26%     30.06        
Oct 23 04:40 NNW 2   Clear   68 32     26%     30.06        
Oct 23 04:30 Calm   Clear   68 32     26%     30.06        
Oct 23 04:25 NNW 1   Clear   68 32     26%     30.06        
Oct 23 04:20 NNW 1   Clear   68 32     26%     30.06        
Oct 23 04:15 NNW 1   Clear   67 32     27%     30.06        
Oct 23 04:10 NNW 1   Clear   67 32     27%     30.06        
Oct 23 04:00 NNW 2   Clear   67 31     26%     30.06        
Notice The following observation data may not be complete
Oct 23 03:55     Clear            %              
Oct 23 03:50 Calm   Clear   69 33     26%     30.06        
Oct 23 03:45 Calm   Clear   69 32     25%     30.06        
Oct 23 03:40 Calm   Clear   69 32     25%     30.06        
Oct 23 03:35 Calm   Clear   69 32     25%     30.06        
Oct 23 03:30 NNW 1   Clear   69 33     26%     30.06        
Oct 23 03:25 NNW 2   Clear   68 32     26%     30.06        
Oct 23 03:20 Calm   Clear   69 33     26%     30.06        
Oct 23 03:15 NNW 1   Clear   70 33     25%     30.06        
Oct 23 03:10 Calm   Clear   70 32     24%     30.06        
Oct 23 03:05 Calm   Clear   71 32     24%   69 30.06        
Oct 23 03:00 Calm   Clear   72 31     22%   70 30.06        
Oct 23 02:55 NNW 2   Clear   71 31     23%   69 30.06        
Oct 23 02:50 NNW 1   Clear   70 32     24%     30.06        
Oct 23 02:45 NNW 1   Clear   70 33     25%     30.07        
Oct 23 02:40 NNW 1   Clear   71 31     23%   69 30.06        
Oct 23 02:35 NNW 1   Clear   70 32     24%     30.07        
Oct 23 02:30 Calm   Clear   69 32     25%     30.07        
Oct 23 02:25 NNW 1   Clear   70 32     24%     30.07        
Oct 23 02:20 NNW 1   Clear   71 31     23%   69 30.07        
Oct 23 02:15 NNW 1   Clear   72 31     22%   70 30.07        
Oct 23 02:10 NNW 1   Clear   71 31     23%   69 30.07        
Oct 23 02:05 NNW 2   Clear   71 30     22%   69 30.07        
Oct 23 02:00 NNW 1   Clear   71 30     22%   69 30.07        
Oct 23 01:55 NNW 1   Clear   71 30     22%   69 30.07        
Oct 23 01:50 Calm   Clear   71 31     23%   69 30.07        
Oct 23 01:45 NNW 1   Clear   71 30     22%   69 30.07        
Oct 23 01:40 NNW 1   Clear   72 30     21%   70 30.07        
Oct 23 01:35 NNW 1   Clear   72 31     22%   70 30.07        
Oct 23 01:30 NNW 1   Clear   72 30     21%   70 30.07        
Oct 23 01:25 Calm   Clear   72 30     21%   70 30.07        
Oct 23 01:20 NNW 1   Clear   73 31     21%   71 30.07        
Oct 23 01:15 NNW 1   Clear   73 31     21%   71 30.07        
Oct 23 01:10 NNW 3   Clear   73 31     21%   71 30.07        
Oct 23 01:05 NNW 3   Clear   72 30     21%   70 30.07        
Oct 23 01:00 NNW 2   Clear   73 31     21%   71 30.07        
Oct 23 00:55 NNW 3   Clear   72 30     21%   70 30.07        
Oct 23 00:50 NNW 2   Clear   72 30     21%   70 30.07        
Oct 23 00:45 NNW 2   Clear   73 30     20%   71 30.07        
Oct 23 00:40 NNW 2   Clear   74 30     20%   72 30.07        
Oct 23 00:35 NNW 3   Clear   74 30     20%   72 30.07        
Oct 23 00:30 NNW 3   Clear   73 30     20%   71 30.07        
Oct 23 00:25 NNW 2   Clear   73 30     20%   71 30.07        
Oct 23 00:20 NNW 2   Clear   73 30     20%   71 30.07        
Oct 23 00:15 NNW 2   Clear   73 30     20%   71 30.07        
Oct 23 00:10 NNW 2   Clear   73 30     20%   71 30.07        
Oct 23 00:05 NNW 2   Clear   73 30     20%   71 30.08        
Oct 23 00:00 NNW 1   Clear   73 30     20%   71 30.08        
Oct 22 23:55 NNW 2   Clear   74 30     20%   72 30.08        
Oct 22 23:50 NNW 1   Clear   74 30     20%   72 30.08        
Oct 22 23:45 NNW 1   Clear   74 30     20%   72 30.08        
Oct 22 23:40 NNW 1   Clear   75 30     19%   73 30.08        
Oct 22 23:35 NNW 2   Clear   76 31     19%   74 30.08        
Oct 22 23:30 NNW 3   Clear   75 31     20%   73 30.08        
Oct 22 23:25 NNW 3   Clear   74 30     20%   72 30.08        
Oct 22 23:20 NNW 3   Clear   75 31     20%   73 30.08        
Oct 22 23:15 NNW 3   Clear   75 31     20%   73 30.08        
Oct 22 23:10 NNW 3   Clear   75 31     20%   73 30.08        
Oct 22 23:05 NNW 6   Clear   75 31     20%   73 30.08        
Oct 22 23:00 NNW 4   Clear   74 30     20%   72 30.08        
Oct 22 22:55 NNW 2   Clear   75 31     20%   73 30.08        
Oct 22 22:50 NNW 3   Clear   74 30     20%   72 30.08        
Oct 22 22:45 NNW 2   Clear   73 30     20%   71 30.08        
Oct 22 22:40 NNW 4   Clear   73 28     19%   71 30.08        
Oct 22 22:35 NNW 3   Clear   73 28     19%   71 30.08        
Oct 22 22:30 NNW 2   Clear   73 30     20%   71 30.08        
Oct 22 22:25 Calm   Clear   73 28     19%   71 30.09        
Oct 22 22:20 Calm   Clear   73 28     19%   71 30.09        
Oct 22 22:15 NNW 2   Clear   73 28     19%   71 30.09        
Oct 22 22:10 NNW 2   Clear   73 30     20%   71 30.09        
Oct 22 22:05 NNW 3   Clear   73 30     20%   71 30.09        
Oct 22 22:00 NNW 3   Clear   73 30     20%   71 30.08        
Oct 22 21:55 NNW 3   Clear   73 28     19%   71 30.08        
Oct 22 21:50 NNW 2   Clear   74 29     19%   72 30.09        
Oct 22 21:45 NNW 2   Clear   74 26     17%   72 30.09        
Oct 22 21:40 NNW 2   Clear   75 26     16%   73 30.09        
Oct 22 21:35 NNW 2   Clear   75 27     17%   73 30.08        
Oct 22 21:30 NNW 1   Clear   75 26     16%   73 30.08        
Oct 22 21:25 NNW 2   Clear   75 24     15%   73 30.08        
Oct 22 21:20 NNW 3   Clear   75 24     15%   73 30.08        
Oct 22 21:15 NNW 2   Clear   75 26     16%   73 30.08        
Oct 22 21:10 Calm   Clear   76 25     15%   74 30.08        
Oct 22 21:05 Calm   Clear   76 25     15%   74 30.08        
Oct 22 21:00 NNW 2   Clear   77 26     15%   75 30.08        
Oct 22 20:55 NNW 2   Clear   77 26     15%   75 30.08        
Oct 22 20:50 NNW 2   Clear   77 26     15%   75 30.08        
Oct 22 20:45 NNW 2   Clear   77 26     15%   75 30.08        
Oct 22 20:40 NNW 2   Clear   76 25     15%   74 30.08        
Oct 22 20:35 NNW 2   Clear   76 25     15%   74 30.08        
Oct 22 20:30 NNW 2   Clear   76 27     16%   74 30.08        
Oct 22 20:25 NNW 2   Clear   76 25     15%   74 30.08        
Oct 22 20:20 NNW 1   Clear   77 26     15%   75 30.08        
Oct 22 20:15 NNW 1   Clear   78 27     15%   76 30.08        
Oct 22 20:10 Calm   Clear   78 27     15%   76 30.08        
Oct 22 20:05 Calm   Clear   79 27     15%   77 30.08        
Oct 22 20:00 Calm   Clear   79 26     14%   77 30.08        
Oct 22 19:55 NNW 2   Clear   80 27     14%   78 30.08        
Oct 22 19:50 NNW 2   Clear   80 25     13%   78 30.08        
Oct 22 19:45 Calm   Clear   79 26     14%   77 30.08        
Oct 22 19:40 NNW 1   Clear   79 27     15%   77 30.08        
Oct 22 19:35 NNW 1   Clear   79 27     15%   77 30.08        
Oct 22 19:30 Calm   Clear   80 28     15%   78 30.08        
Oct 22 19:25 NNW 1   Clear   81 26     13%   79 30.08        
Oct 22 19:20 NNW 1   Clear   81 26     13%   79 30.08        
Oct 22 19:15 NNW 1   Clear   81 26     13%   79 30.08        
Oct 22 19:10 NNW 2   Clear   80 25     13%   78 30.07        
Oct 22 19:05 NNW 1   Clear   80 25     13%   78 30.07        
Oct 22 19:00 Calm   Clear   80 27     14%   78 30.07        
Oct 22 18:55 NNW 2   Clear   81 26     13%   79 30.07        
Oct 22 18:50 NNW 2   Clear   81 26     13%   79 30.07        
Oct 22 18:45 Calm   Clear   83 27     13%   80 30.06        
Oct 22 18:40 Calm   Clear   84 26     12%   81 30.06        
Oct 22 18:35 NNW 2   Clear   85 25     11%   82 30.06        
Oct 22 18:30 NNW 1   Clear   85 27     12%   82 30.06        
Oct 22 18:25 Calm   Clear   85 27     12%   82 30.06        
Oct 22 18:20 Calm   Clear   87 28     12%   83 30.06        
Oct 22 18:15 NNW 1   Clear   87 26     11%   83 30.06        
Oct 22 18:10 NNW 1   Clear   87 28     12%   83 30.06        
Oct 22 18:05 NNW 1   Clear   88 27     11%   84 30.06        
Oct 22 18:00 NNW 1   Clear   88 29     12%   84 30.06        
Oct 22 17:55 NNW 1   Clear   88 27     11%   84 30.05        
Oct 22 17:50 NNW 1   Clear   90 26     10%   85 30.05        
Oct 22 17:45 NNW 1   Clear   90 26     10%   85 30.05        
Oct 22 17:40 NNW 2   Clear   91 27     10%   86 30.05        
Oct 22 17:35 NNW 1   Clear   91 24     9%   86 30.05        
Oct 22 17:30 NNW 1   Clear   92 28     10%   87 30.05        
Oct 22 17:25 NNW 1   Clear   92 28     10%   87 30.05        
Oct 22 17:20 NNW 2   Clear   92 25     9%   87 30.05        
Oct 22 17:15 NNW 2   Clear   92 25     9%   87 30.05        
Oct 22 17:10 NNW 2   Clear   93 26     9%   88 30.05        
Oct 22 17:05 NNW 2   Clear   93 23     8%   87 30.05        
Oct 22 17:00 NNW 2   Clear   93 23     8%   87 30.05        
Oct 22 16:55 NNW 2   Clear   93 26     9%   88 30.05        
Oct 22 16:50 NNW 2   Clear   93 23     8%   87 30.05        
Oct 22 16:45 NNW 3   Clear   93 23     8%   87 30.05        
Oct 22 16:40 NNW 2   Clear   93 23     8%   87 30.05        
Oct 22 16:35 NNW 3   Clear   93 23     8%   87 30.05        
Oct 22 16:30 NNW 2   Clear   93 23     8%   87 30.05        
Oct 22 16:25 NNW 2   Clear   93 23     8%   87 30.06        
Oct 22 16:20 NNW 2   Clear   93 23     8%   87 30.06        
Oct 22 16:15 NNW 2   Clear   93 26     9%   88 30.06        
Oct 22 16:10 NNW 2   Clear   93 26     9%   88 30.06        
Oct 22 16:05 NNW 1   Clear   93 23     8%   87 30.07        
Oct 22 16:00 Calm   Clear   93 23     8%   87 30.07        
Oct 22 15:55 NNW 1   Clear   93 23     8%   87 30.07        
Oct 22 15:50 NNW 2   Clear   94 24     8%   88 30.07        
Oct 22 15:45 NNW 2   Clear   93 20     7%   87 30.07        
Oct 22 15:40 NNW 2   Clear   94 21     7%   88 30.07        
Oct 22 15:35 NNW 2   Clear   93 23     8%   87 30.07        
Oct 22 15:30 NNW 2   Clear   93 20     7%   87 30.07        
Oct 22 15:25 NNW 1   Clear   93 23     8%   87 30.07        
Oct 22 15:20 NNW 3   Clear   93 26     9%   88 30.07        
Oct 22 15:15 NNW 2   Clear   93 28     10%   88 30.08        
Oct 22 15:10 NNW 4   Clear   93 26     9%   88 30.08        
Oct 22 15:05 NNW 4   Clear   93 26     9%   88 30.08        
Oct 22 15:00 NNW 3   Clear   93 26     9%   88 30.08        
Oct 22 14:55 NNW 3   Clear   93 23     8%   87 30.08        
Oct 22 14:50 NNW 3   Clear   93 28     10%   88 30.08        
Oct 22 14:45 NNW 2   Clear   92 25     9%   87 30.08        
Oct 22 14:40 NNW 2   Clear   92 25     9%   87 30.08        
Oct 22 14:35 NNW 2   Clear   93 26     9%   88 30.08        
Oct 22 14:30 NNW 3   Clear   93 23     8%   87 30.08        
Oct 22 14:25 NNW 2   Clear   93 23     8%   87 30.08        
Oct 22 14:20 NNW 3   Clear   93 23     8%   87 30.09        
Oct 22 14:15 NNW 3   Clear   92 25     9%   87 30.09        
Oct 22 14:10 NNW 3   Clear   92 25     9%   87 30.09        
Oct 22 14:05 NNW 3   Clear   93 23     8%   87 30.09        
Oct 22 14:00 NNW 1   Clear   92 25     9%   87 30.1        
Oct 22 13:55 NNW 1   Clear   91 29     11%   86 30.1        
Oct 22 13:50 NNW 1   Clear   92 22     8%   86 30.1        
Oct 22 13:45 NNW 2   Clear   92 25     9%   87 30.1        
Oct 22 13:40 NNW 1   Clear   92 22     8%   86 30.1        
Oct 22 13:35 NNW 1   Clear   91 24     9%   86 30.11        
Oct 22 13:30 NNW 2   Clear   91 24     9%   86 30.11        
Oct 22 13:25 NNW 3   Clear   91 24     9%   86 30.11        
Oct 22 13:20 NNW 4   Clear   91 24     9%   86 30.11        
Oct 22 13:15 NNW 1   Clear   91 27     10%   86 30.11        
Oct 22 13:10 NNW 3   Clear   91 27     10%   86 30.12        
Oct 22 13:05 NNW 2   Clear   91 29     11%   86 30.12        
Oct 22 13:00 NNW 3   Clear   91 29     11%   86 30.12        
Oct 22 12:55 NNW 1   Clear   90 28     11%   85 30.13        
Oct 22 12:50 NNW 3   Clear   90 24     9%   85 30.13        
Oct 22 12:45 NNW 2   Clear   90 26     10%   85 30.13        
Oct 22 12:40 NNW 2   Clear   90 21     8%   85 30.13        
Oct 22 12:35 NNW 3   Clear   90 26     10%   85 30.13        
Oct 22 12:30 NNW 1   Clear   89 25     10%   84 30.13        
Oct 22 12:25 NNW 2   Clear   90 28     11%   85 30.14        
Oct 22 12:20 NNW 2   Clear   89 25     10%   84 30.14        
Oct 22 12:15 NNW 2   Clear   89 25     10%   84 30.14        
Oct 22 12:10 NNW 3   Clear   89 28     11%   85 30.14        
Oct 22 12:05 NNW 4   Clear   89 25     10%   84 30.14        
Oct 22 12:00 NNW 2   Clear   88 27     11%   84 30.14        
Oct 22 11:55 NNW 3   Clear   88 25     10%   84 30.15        
Oct 22 11:50 NNW 3   Clear   88 25     10%   84 30.15        
Oct 22 11:45 NNW 2   Clear   88 27     11%   84 30.15        
Oct 22 11:40 NNW 3   Clear   88 22     9%   84 30.15        
Oct 22 11:35 NNW 2   Clear   87 21     9%   83 30.15        
Oct 22 11:30 NNW 1   Clear   87 26     11%   83 30.15        
Oct 22 11:25 NNW 1   Clear   86 27     12%   82 30.15        
Oct 22 11:20 Calm   Clear   86 23     10%   82 30.15        
Oct 22 11:15 Calm   Clear   86 25     11%   82 30.15        
Oct 22 11:10 NNW 2   Clear   86 27     12%   82 30.15        
Oct 22 11:05 NNW 1   Clear   86 25     11%   82 30.15        
Oct 22 11:00 NNW 1   Clear   86 27     12%   82 30.15        
Oct 22 10:55 NNW 1   Clear   85 22     10%   81 30.15        
Oct 22 10:50 NNW 1   Clear   85 27     12%   82 30.15        
Oct 22 10:45 NNW 1   Clear   84 30     14%   81 30.15        
Oct 22 10:40 NNW 1   Clear   84 30     14%   81 30.15        
Oct 22 10:35 NNW 1   Clear   83 29     14%   80 30.15        
Oct 22 10:30 NNW 1   Clear   83 32     16%   80 30.16        
Oct 22 10:25 NNW 1   Clear   82 31     16%   80 30.16        
Oct 22 10:20 NNW 1   Clear   82 31     16%   80 30.16        
Oct 22 10:15 NNW 1   Clear   81 32     17%   80 30.15        
Oct 22 10:10 NNW 1   Clear   80 33     18%   79 30.15        
Oct 22 10:05 NNW 1   Clear   80 34     19%   79 30.15        
Oct 22 10:00 Calm   Clear   79 36     21%   78 30.15        
Oct 22 09:55 NNW 1   Clear   79 36     21%   78 30.15        
Oct 22 09:50 NNW 1   Clear   78 36     22%   77 30.16        
Oct 22 09:45 NNW 1   Clear   78 35     21%   76 30.15        
Oct 22 09:40 NNW 2   Clear   78 35     21%   76 30.15        
Oct 22 09:35 NNW 1   Clear   77 35     22%   75 30.15        
Oct 22 09:30 NNW 1   Clear   76 32     20%   74 30.15        
Oct 22 09:25 NNW 1   Clear   76 34     22%   74 30.15        
Oct 22 09:20 NNW 1   Clear   75 34     22%   73 30.15        
Oct 22 09:15 Calm   Clear   74 30     20%   72 30.15        
Oct 22 09:10 NNW 1   Clear   73 32     22%   71 30.14        
Oct 22 09:05 NNW 1   Clear   72 29     20%   70 30.14        
Oct 22 09:00 NNW 1   Clear   71 29     21%   69 30.14        
Oct 22 08:55 NNW 1   Clear   70 29     22%     30.14        
Oct 22 08:50 NNW 2   Clear   69 29     22%     30.14        
Oct 22 08:45 NNW 1   Clear   68 29     23%     30.14        
Oct 22 08:40 NNW 1   Clear   67 27     22%     30.14        
Oct 22 08:35 NNW 1   Clear   67 28     23%     30.14        
Oct 22 08:30 NNW 1   Clear   66 29     25%     30.13        
Oct 22 08:25 NNW 1   Clear   65 27     24%     30.13        
Oct 22 08:20 Calm   Clear   64 26     24%     30.13        
Oct 22 08:15 NNW 1   Clear   63 26     24%     30.13        
Oct 22 08:10 NNW 3   Clear   63 25     23%     30.13        
Oct 22 08:05 NNW 2   Clear   62 25     24%     30.13        
Oct 22 08:00 NNW 3   Clear   62 25     24%     30.12        
Oct 22 07:55 NNW 2   Clear   61 26     26%     30.12        
Oct 22 07:50 NNW 2   Clear   61 27     27%     30.12        
Oct 22 07:45 NNW 2   Clear   61 27     27%     30.11        
Oct 22 07:40 NNW 2   Clear   60 25     26%     30.11        
Oct 22 07:35 NNW 2   Clear   60 25     26%     30.11        
Oct 22 07:30 NNW 2   Clear   60 24     25%     30.11        
Oct 22 07:25 NNW 2   Clear   60 23     24%     30.11        
Oct 22 07:20 NNW 2   Clear   60 23     24%     30.11        
Oct 22 07:15 NNW 1   Clear   60 23     24%     30.11        
Oct 22 07:10 NNW 2   Clear   59 22     24%     30.11        
Oct 22 07:05 NNW 1   Clear   60 23     24%     30.11        
Oct 22 07:00 NNW 2   Clear   60 23     24%     30.11        
Oct 22 06:55 NNW 2   Clear   59 23     25%     30.11        
Oct 22 06:50 Calm   Clear   60 24     25%     30.11        
Oct 22 06:45 NNW 1   Clear   60 24     25%     30.11        
Oct 22 06:40 Calm   Clear   59 23     25%     30.11        
Oct 22 06:35 Calm   Clear   60 24     25%     30.11        
Oct 22 06:30 NNW 1   Clear   60 24     25%     30.1        
Oct 22 06:25 NNW 1   Clear   60 24     25%     30.1        
Oct 22 06:20 Calm   Clear   60 25     26%     30.1        
Oct 22 06:15 Calm   Clear   60 25     26%     30.1        
Oct 22 06:10 Calm   Clear   60 22     23%     30.1        
Oct 22 06:05 Calm   Clear   60 22     23%     30.1        
Oct 22 06:00 Calm   Clear   61 23     23%     30.1        
Oct 22 05:55 Calm   Clear   60 22     23%     30.1        
Oct 22 05:50 Calm   Clear   60 23     24%     30.1        
Oct 22 05:45 Calm   Clear   61 23     23%     30.1        
Oct 22 05:40 NNW 2   Clear   61 23     23%     30.1        
Oct 22 05:35 Calm   Clear   61 25     25%     30.1        
Oct 22 05:30 NNW 2   Clear   61 23     23%     30.1        
Oct 22 05:25 NNW 1   Clear   61 24     24%     30.1        
Oct 22 05:20 NNW 2   Clear   62 29     28%     30.1        
Oct 22 05:15 Calm   Clear   62 23     22%     30.1        
Oct 22 05:10 NNW 1   Clear   61 23     23%     30.1        
Oct 22 05:05 NNW 2   Clear   62 22     21%     30.1        
Oct 22 05:00 Calm   Clear   62 22     21%     30.1        
Oct 22 04:55 NNW 2   Clear   63 20     19%     30.1        
Oct 22 04:50 NNW 1   Clear   63 21     20%     30.1        
Oct 22 04:45 NNW 1   Clear   63 21     20%     30.1        
Oct 22 04:40 NNW 1   Clear   63 20     19%     30.1        
Oct 22 04:35 NNW 1   Clear   63 22     21%     30.1        
Oct 22 04:30 NNW 2   Clear   62 22     21%     30.09        
Oct 22 04:25 NNW 1   Clear   62 22     21%     30.09        
Oct 22 04:20 NNW 3   Clear   63 21     20%     30.09        
Oct 22 04:15 NNW 2   Clear   63 21     20%     30.09        
Oct 22 04:10 NNW 3   Clear   63 21     20%     30.09        
Oct 22 04:05 NNW 3   Clear   63 21     20%     30.09        
Oct 22 04:00 NNW 2   Clear   63 22     21%     30.09        
Oct 22 03:55 NNW 3   Clear   64 22     20%     30.09        
Oct 22 03:50 NNW 2   Clear   64 22     20%     30.09        
Oct 22 03:45 NNW 1   Clear   65 23     20%     30.09        
Oct 22 03:40 NNW 4   Clear   64 22     20%     30.09        
Oct 22 03:35 NNW 1   Clear   64 23     21%     30.09        
Oct 22 03:30 NNW 2   Clear   64 23     21%     30.09        
Oct 22 03:25 NNW 2   Clear   64 23     21%     30.1        
Oct 22 03:20 NNW 1   Clear   64 23     21%     30.1        
Oct 22 03:15 NNW 1   Clear   64 22     20%     30.09        
Oct 22 03:10 NNW 3   Clear   65 24     21%     30.1        
Oct 22 03:05 NNW 1   Clear   65 23     20%     30.1        
Oct 22 03:00 NNW 1   Clear   66 24     20%     30.1        
Oct 22 02:55 NNW 1   Clear   66 23     19%     30.1        
Oct 22 02:50 NNW 1   Clear   65 22     19%     30.1        
Oct 22 02:45 NNW 3   Clear   65 22     19%     30.1        
Oct 22 02:40 NNW 3   Clear   65 20     18%     30.1        
Oct 22 02:35 NNW 1   Clear   66 20     17%     30.1        
Oct 22 02:30 NNW 3   Clear   66 20     17%     30.1        
Oct 22 02:25 NNW 3   Clear   66 21     18%     30.1        
Oct 22 02:20 NNW 1   Clear   65 22     19%     30.1        
Oct 22 02:15 NNW 2   Clear   65 22     19%     30.1        
Oct 22 02:10 NNW 2   Clear   65 22     19%     30.1        
Oct 22 02:05 NNW 1   Clear   65 22     19%     30.1        
Oct 22 02:00 NNW 2   Clear   64 22     20%     30.1        
Oct 22 01:55 NNW 3   Clear   64 21     19%     30.1        
Oct 22 01:50 NNW 1   Clear   65 22     19%     30.1        
Oct 22 01:45 NNW 3   Clear   65 23     20%     30.1        
Oct 22 01:40 NNW 3   Clear   65 22     19%     30.1        
Oct 22 01:35 NNW 3   Clear   65 20     18%     30.1        
Oct 22 01:30 NNW 1   Clear   65 22     19%     30.1        
Oct 22 01:25 NNW 1   Clear   65 22     19%     30.1        
Oct 22 01:20 NNW 2   Clear   65 22     19%     30.1        
Oct 22 01:15 NNW 1   Clear   66 21     18%     30.1        
Oct 22 01:10 NNW 1   Clear   67 22     18%     30.1        
Oct 22 01:05 NNW 1   Clear   67 21     17%     30.1        
Oct 22 01:00 NNW 1   Clear   66 20     17%     30.1        
Oct 22 00:55 NNW 1   Clear   66 21     18%     30.1        
Oct 22 00:50 NNW 1   Clear   66 21     18%     30.1        
Oct 22 00:45 NNW 1   Clear   66 20     17%     30.1        
Oct 22 00:40 NNW 1   Clear   67 22     18%     30.1        
Oct 22 00:35 Calm   Clear   67 21     17%     30.1        
Oct 22 00:30 NNW 2   Clear   67 21     17%     30.1        
Oct 22 00:25 NNW 2   Clear   67 22     18%     30.1        
Oct 22 00:20 NNW 4   Clear   67 22     18%     30.1        
Oct 22 00:15 NNW 3   Clear   67 22     18%     30.1        
Oct 22 00:10 NNW 1   Clear   67 22     18%     30.1        
Oct 22 00:05 NNW 2   Clear   67 22     18%     30.1        
Oct 22 00:00 NNW 1   Clear   67 21     17%     30.1        
Oct 21 23:55 NNW 2   Clear   67 21     17%     30.1        
Oct 21 23:50 NNW 3   Clear   67 21     17%     30.1        
Oct 21 23:45 NNW 2   Clear   67 21     17%     30.1        
Oct 21 23:40 NNW 1   Clear   68 22     17%     30.1        
Oct 21 23:35 NNW 2   Clear   69 22     17%     30.1        
Oct 21 23:30 NNW 1   Clear   69 21     16%     30.11        
Oct 21 23:25 NNW 1   Clear   69 22     17%     30.1        
Oct 21 23:20 NNW 3   Clear   69 22     17%     30.1        
Oct 21 23:15 NNW 1   Clear   69 22     17%     30.1        
Oct 21 23:10 NNW 1   Clear   69 24     18%     30.1        
Oct 21 23:05 Calm   Clear   70 23     17%     30.1        
Oct 21 23:00 NNW 1   Clear   70 23     17%     30.1        
Oct 21 22:55 NNW 1   Clear   70 25     18%     30.1        
Oct 21 22:50 NNW 1   Clear   70 23     17%     30.1        
Oct 21 22:45 NNW 1   Clear   71 23     16%   69 30.1        
Oct 21 22:40 NNW 2   Clear   70 22     16%     30.09        
Oct 21 22:35 Calm   Clear   71 23     16%   69 30.09        
Oct 21 22:30 Calm   Clear   72 23     16%   70 30.09        
Oct 21 22:25 NNW 1   Clear   72 22     15%   70 30.09        
Oct 21 22:20 NNW 1   Clear   72 23     16%   70 30.09        
Oct 21 22:15 NNW 4   Clear   72 23     16%   70 30.09        
Oct 21 22:10 NNW 2   Clear   72 23     16%   70 30.08        
Oct 21 22:05 NNW 3   Clear   72 23     16%   70 30.08        
Oct 21 22:00 NNW 2   Clear   72 23     16%   70 30.08        
Oct 21 21:55 NNW 2   Clear   72 22     15%   70 30.08        
Oct 21 21:50 NNW 1   Clear   72 23     16%   70 30.08        
Oct 21 21:45 Calm   Clear   72 23     16%   70 30.08        
Oct 21 21:40 Calm   Clear   73 23     15%   71 30.08        
Oct 21 21:35 Calm   Clear   73 24     16%   71 30.08        
Oct 21 21:30 NNW 2   Clear   73 23     15%   71 30.08        
Oct 21 21:25 NNW 2   Clear   73 23     15%   71 30.08        
Oct 21 21:20 NNW 1   Clear   74 22     14%   72 30.07        
Oct 21 21:15 Calm   Clear   73 21     14%   71 30.07        
Oct 21 21:10 NNW 2   Clear   73 23     15%   71 30.07        
Oct 21 21:05 NNW 3   Clear   73 24     16%   71 30.07        
Oct 21 21:00 NNW 2   Clear   74 23     15%   72 30.07        
Oct 21 20:55 NNW 3   Clear   75 24     15%   73 30.07        
Oct 21 20:50 NNW 2   Clear   74 25     16%   72 30.06        
Oct 21 20:45 NNW 3   Clear   74 26     17%   72 30.07        
Oct 21 20:40 NNW 2   Clear   75 27     17%   73 30.06        
Oct 21 20:35 NNW 1   Clear   73 26     17%   71 30.06        
Oct 21 20:30 Calm   Clear   73 27     18%   71 30.06        
Oct 21 20:25 Calm   Clear   73 27     18%   71 30.06        
Oct 21 20:20 NNW 2   Clear   73 27     18%   71 30.06        
Oct 21 20:15 Calm   Clear   73 26     17%   71 30.06        
Oct 21 20:10 Calm   Clear   73 26     17%   71 30.05        
Oct 21 20:05 Calm   Clear   74 23     15%   72 30.05        
Oct 21 20:00 NNW 3   Clear   75 24     15%   73 30.05        
Oct 21 19:55 NNW 3   Clear   75 24     15%   73 30.05        
Oct 21 19:50 NNW 3   Clear   75 24     15%   73 30.05        
Oct 21 19:45 NNW 3   Clear   75 24     15%   73 30.05        
Oct 21 19:40 NNW 4   Clear   74 26     17%   72 30.04        
Oct 21 19:35 NNW 2   Clear   75 26     16%   73 30.04        
Oct 21 19:30 NNW 2   Clear   76 27     16%   74 30.04        
Oct 21 19:25 NNW 1   Clear   76 27     16%   74 30.03        
Oct 21 19:20 Calm   Clear   76 27     16%   74 30.03        
Oct 21 19:15 Calm   Clear   76 27     16%   74 30.03        
Oct 21 19:10 Calm   Clear   77 27     16%   75 30.03        
Oct 21 19:05 Calm   Clear   76 27     16%   74 30.03        
Oct 21 19:00 Calm   Clear   76 27     16%   74 30.03        
Oct 21 18:55 NNW 1   Clear   78 28     16%   76 30.02        
Oct 21 18:50 NNW 1   Clear   78 30     17%   76 30.02        
Oct 21 18:45 NNW 2   Clear   79 27     15%   77 30.02        
Oct 21 18:40 NNW 3   Clear   79 27     15%   77 30.02        
Oct 21 18:35 NNW 2   Clear   79 27     15%   77 30.02        
Oct 21 18:30 NNW 2   Clear   79 26     14%   77 30.02        
Oct 21 18:25 NNW 2   Clear   79 26     14%   77 30.02        
Oct 21 18:20 NNW 1   Clear   80 27     14%   78 30.02        
Oct 21 18:15 Calm   Clear   80 27     14%   78 30.01        
Oct 21 18:10 Calm   Clear   81 26     13%   79 30.01        
Oct 21 18:05 NNW 1   Clear   81 26     13%   79 30.01        
Oct 21 18:00 NNW 1   Clear   82 26     13%   80 30.01        
Oct 21 17:55 NNW 1   Clear   82 26     13%   80 30.01        
Oct 21 17:50 NNW 1   Clear   82 24     12%   79 30.01        
Oct 21 17:45 NNW 1   Clear   83 25     12%   80 30.01        
Oct 21 17:40 NNW 1   Clear   83 25     12%   80 30.01        
Oct 21 17:35 NNW 2   Clear   84 26     12%   81 30        
Oct 21 17:30 NNW 3   Clear   84 24     11%   81 30        
Oct 21 17:25 NNW 3   Clear   84 26     12%   81 30        
Oct 21 17:20 NNW 4   Clear   84 26     12%   81 30        
Oct 21 17:15 NNW 6   Clear   84 26     12%   81 30        
Oct 21 17:10 NNW 3   Clear   84 26     12%   81 30        
Oct 21 17:05 NNW 4   Clear   84 24     11%   81 30        
Oct 21 17:00 NNW 4   Clear   85 27     12%   82 30        
Oct 21 16:55 NNW 4   Clear   85 27     12%   82 30        
Oct 21 16:50 NNW 3   Clear   85 27     12%   82 30        
Oct 21 16:45 NNW 5   Clear   85 29     13%   82 30        
Oct 21 16:40 NNW 3   Clear   85 27     12%   82 30        
Oct 21 16:35 NNW 3   Clear   85 29     13%   82 30        
Oct 21 16:30 NNW 5   Clear   85 25     11%   82 30        
Oct 21 16:25 NNW 6   Clear   85 25     11%   82 30        
Oct 21 16:20 NNW 3   Clear   85 27     12%   82 29.99        
Oct 21 16:15 NNW 5   Clear   85 27     12%   82 29.99        
Oct 21 16:10 NNW 3   Clear   86 29     13%   83 29.99        
Oct 21 16:05 NNW 3   Clear   85 27     12%   82 29.99        
Oct 21 16:00 NNW 5   Clear   85 27     12%   82 29.99        
Oct 21 15:55 NNW 3   Clear   85 29     13%   82 29.99        
Oct 21 15:50 NNW 2   Clear   85 25     11%   82 30        
Oct 21 15:45 NNW 2   Clear   86 25     11%   82 29.99        
Oct 21 15:40 NNW 1   Clear   85 25     11%   82 30        
Oct 21 15:35 NNW 3   Clear   85 29     13%   82 29.99        
Oct 21 15:30 NNW 3   Clear   86 25     11%   82 29.99        
Oct 21 15:25 Calm   Clear   86 27     12%   82 29.99        
Oct 21 15:20 NNW 3   Clear   86 25     11%   82 30        
Oct 21 15:15 NNW 1   Clear   86 25     11%   82 30        
Oct 21 15:10 NNW 2   Clear   86 25     11%   82 30        
Oct 21 15:05 NNW 3   Clear   85 27     12%   82 30        
Oct 21 15:00 NNW 2   Clear   85 29     13%   82 30        
Oct 21 14:55 NNW 2   Clear   85 25     11%   82 30        
Oct 21 14:50 NNW 2   Clear   84 24     11%   81 30        
Oct 21 14:45 NNW 3   Clear   85 25     11%   82 30        
Oct 21 14:40 NNW 4   Clear   85 25     11%   82 30        
Oct 21 14:35 NNW 2   Clear   85 22     10%   81 30        
Oct 21 14:30 NNW 2   Clear   85 27     12%   82 30        
Oct 21 14:25 NNW 1   Clear   85 27     12%   82 30        
Oct 21 14:20 NNW 1   Clear   85 27     12%   82 30        
Oct 21 14:15 NNW 3   Clear   85 27     12%   82 30        
Oct 21 14:10 NNW 3   Clear   86 31     14%   83 30        
Oct 21 14:05 NNW 3   Clear   85 29     13%   82 30        
Oct 21 14:00 NNW 1   Clear   84 26     12%   81 30        
Oct 21 13:55 NNW 3   Clear   85 27     12%   82 30        
Oct 21 13:50 NNW 3   Clear   85 27     12%   82 30.01        
Oct 21 13:45 NNW 5   Clear   85 27     12%   82 30.01        
Oct 21 13:40 NNW 3   Clear   85 27     12%   82 30.01        
Oct 21 13:35 NNW 3   Clear   85 27     12%   82 30.01        
Oct 21 13:30 NNW 3   Clear   84 26     12%   81 30.01        
Oct 21 13:25 NNW 3   Clear   84 24     11%   81 30.01        
Oct 21 13:20 NNW 6   Clear   84 30     14%   81 30.01        
Oct 21 13:15 NNW 5   Clear   85 30     14%   82 30.01        
Oct 21 13:10 NNW 5   Clear   84 26     12%   81 30.01        
Oct 21 13:05 NNW 3   Clear   84 30     14%   81 30.01        
Oct 21 13:00 NNW 3   Clear   84 30     14%   81 30.01        
Oct 21 12:55 NNW 5   Clear   84 26     12%   81 30.02        
Oct 21 12:50 NNW 4   Clear   84 26     12%   81 30.02        
Oct 21 12:45 NNW 3   Clear   84 26     12%   81 30.02        
Oct 21 12:40 NNW 3   Clear   84 26     12%   81 30.02        
Oct 21 12:35 NNW 2   Clear   83 27     13%   80 30.02        
Oct 21 12:30 NNW 3   Clear   83 25     12%   80 30.02        
Oct 21 12:25 NNW 3   Clear   83 27     13%   80 30.02        
Oct 21 12:20 NNW 3   Clear   83 29     14%   80 30.02        
Oct 21 12:15 NNW 1   Clear   82 28     14%   80 30.02        
Oct 21 12:10 NNW 1   Clear   82 28     14%   80 30.02        
Oct 21 12:05 NNW 2   Clear   82 26     13%   80 30.03        
Oct 21 12:00 NNW 2   Clear   82 24     12%   79 30.03        
Oct 21 11:55 NNW 2   Clear   82 28     14%   80 30.03        
Oct 21 11:50 NNW 3   Clear   82 30     15%   80 30.03        
Oct 21 11:45 NNW 1   Clear   81 26     13%   79 30.03        
Oct 21 11:40 NNW 3   Clear   82 28     14%   80 30.03        
Oct 21 11:35 Calm   Clear   81 29     15%   80 30.03        
Oct 21 11:30 NNW 1   Clear   81 29     15%   80 30.03        
Oct 21 11:25 NNW 2   Clear   82 26     13%   80 30.03        
Oct 21 11:20 NNW 5   Clear   82 28     14%   80 30.03        
Oct 21 11:15 NNW 2   Clear   81 31     16%   80 30.03        
Oct 21 11:10 NNW 3   Clear   82 33     17%   80 30.03        
Oct 21 11:05 NNW 2   Clear   81 31     16%   80 30.03        
Oct 21 11:00 NNW 5   Clear   81 29     15%   80 30.03        
Oct 21 10:55 NNW 3   Clear   81 27     14%   79 30.03        
Oct 21 10:50 NNW 7   Clear   80 27     14%   78 30.03        
Oct 21 10:45 NNW 6   Clear   81 27     14%   79 30.03        
Oct 21 10:40 NNW 5   Clear   80 28     15%   78 30.03        
Oct 21 10:35 NNW 5   Clear   80 27     14%   78 30.03        
Oct 21 10:30 NNW 7   Clear   80 28     15%   78 30.03        
Oct 21 10:25 NNW 8   Clear   80 27     14%   78 30.03        
Oct 21 10:20 WNW 3   Clear   79 27     15%   77 30.03        
Oct 21 10:15 WNW 2   Clear   79 32     18%   77 30.03        
Oct 21 10:10 WNW 3   Clear   79 29     16%   77 30.03        
Oct 21 10:05 WNW 3   Clear   78 37     23%   77 30.03        
Oct 21 10:00 WNW 2   Clear   78 32     19%   76 30.03        
Oct 21 09:55 WNW 2   Clear   77 30     18%   75 30.03        
Oct 21 09:50 WNW 3   Clear   77 34     21%   75 30.03        
Oct 21 09:45 WNW 7   Clear   76 33     21%   74 30.02        
Oct 21 09:40 WNW 5   Clear   75 35     23%   73 30.02        
Oct 21 09:35 WNW 6   Clear   75 37     25%   73 30.02        
Oct 21 09:30 WNW 6   Clear   74 39     28%   72 30.02        
Oct 21 09:25 WNW 7   Clear   73 41     31%   71 30.01        
Oct 21 09:20 WNW 6   Clear   73 43     34%   72 30.01        
Oct 21 09:15 WNW 6   Clear   72 42     34%   70 30.01        
Oct 21 09:10 WNW 8   Clear   71 45     39%   70 30.01        
Oct 21 09:05 WNW 8   Clear   70 45     41%     30.01        
Oct 21 09:00 WNW 6   Clear   70 46     43%     30        
Oct 21 08:55 WNW 6   Clear   69 46     44%     30        
Oct 21 08:50 WNW 5   Clear   69 47     45%     29.99        
Oct 21 08:45 WNW 6   Clear   69 47     46%     29.99        
Oct 21 08:40 WNW 7   Clear   68 46     46%     29.99        
Oct 21 08:35 WNW 6   Clear   68 47     47%     29.98        
Oct 21 08:30 WNW 6   Clear   67 47     48%     29.98        
Oct 21 08:25 WNW 7   Clear   67 47     49%     29.98        
Oct 21 08:20 WNW 7   Clear   67 48     50%     29.98        
Oct 21 08:15 WNW 6   Clear   66 47     50%     29.98        
Oct 21 08:10 WNW 6   Clear   66 48     52%     29.97        
Oct 21 08:05 WNW 7   Clear   66 48     52%     29.97        
Oct 21 08:00 WNW 7   Clear   66 47     51%     29.96        
Oct 21 07:55 WNW 9   Clear   65 47     53%     29.96        
Oct 21 07:50 WNW 9   Clear   65 47     52%     29.96        
Oct 21 07:45 WNW 10   Clear   65 47     52%     29.96        
Oct 21 07:40 WNW 7   Clear   65 48     54%     29.96        
Oct 21 07:35 WNW 7   Clear   65 48     54%     29.95        
Oct 21 07:30 WNW 7   Clear   65 48     54%     29.95        
Oct 21 07:25 WNW 5   Clear   65 48     54%     29.94        
Oct 21 07:20 WNW 8   Clear   65 47     53%     29.94        
Oct 21 07:15 WNW 8   Clear   65 48     54%     29.94        
Oct 21 07:10 WNW 7   Clear   65 48     54%     29.94        
Oct 21 07:05 WNW 9   Clear   65 48     55%     29.94        
Oct 21 07:00 WNW 8   Clear   65 48     55%     29.94        
Oct 21 06:55 WNW 6   Clear   65 48     55%     29.93        
Oct 21 06:50 WNW 5   Clear   65 48     55%     29.93        
Oct 21 06:45 WNW 5   Clear   65 48     55%     29.93        
Oct 21 06:40 WNW 8   Clear   65 48     55%     29.93        
Oct 21 06:35 WNW 9   Clear   65 48     55%     29.93        
Oct 21 06:30 WNW 7   Clear   65 48     55%     29.93        
Oct 21 06:25 WNW 8   Clear   65 49     56%     29.92        
Oct 21 06:20 WNW 8   Clear   65 49     56%     29.92        
Oct 21 06:15 WNW 11   Clear   65 49     56%     29.92        
Oct 21 06:10 WNW 12   Clear   65 48     55%     29.92        
Oct 21 06:05 WNW 12   Clear   65 48     55%     29.91        
Oct 21 06:00 WNW 13   Clear   65 48     55%     29.91        
Oct 21 05:55 WNW 14   Clear   66 49     54%     29.91        
Oct 21 05:50 WNW 14   Clear   66 49     54%     29.91        
Oct 21 05:45 WNW 15   Clear   66 49     54%     29.91        
Oct 21 05:40 WNW 17   Clear   66 49     55%     29.9        
Oct 21 05:35 WNW 14   Clear   66 49     55%     29.9        
Oct 21 05:30 WNW 16   Clear   66 49     55%     29.89        
Oct 21 05:25 WNW 16   Clear   66 49     55%     29.89        
Oct 21 05:20 WNW 17   Clear   66 49     55%     29.88        
Oct 21 05:15 WNW 14   Clear   66 49     54%     29.88        
Oct 21 05:10 WNW 14   Clear   66 49     54%     29.88        
Oct 21 05:05 WNW 15   Clear   66 49     54%     29.88        
Oct 21 05:00 WNW 16   Clear   66 49     54%     29.88        
Oct 21 04:55 WNW 17   Clear   66 48     53%     29.88        
Oct 21 04:50 WNW 19   Clear   66 48     53%     29.88        
Oct 21 04:45 NW 16   Clear   67 49     53%     29.87        
Oct 21 04:40 WNW 14   Clear   67 49     53%     29.87        
Oct 21 04:35 WNW 17   Clear   67 49     52%     29.87        
Oct 21 04:30 WNW 19   Clear   67 49     52%     29.87        
Oct 21 04:25 WNW 15   Clear   67 49     52%     29.87        
Oct 21 04:20 WNW 16   Clear   67 49     52%     29.86        
Oct 21 04:15 WNW 13   Clear   67 49     52%     29.86        
Oct 21 04:10 WNW 13   Clear   67 49     52%     29.86        
Oct 21 04:05 WNW 16   Clear   67 49     52%     29.86        
Oct 21 04:00 WNW 14   Clear   67 49     52%     29.86        
Oct 21 03:55 WNW 16   Clear   68 50     52%     29.86        
Oct 21 03:50 WNW 16   Clear   68 49     51%     29.86        
Oct 21 03:45 WNW 17   Clear   68 49     50%     29.86        
Oct 21 03:40 WNW 18   Clear   68 48     49%     29.86        
Oct 21 03:35 WNW 16   Clear   68 48     49%     29.86        
Oct 21 03:30 WNW 18   Clear   68 48     49%     29.86        
Oct 21 03:25 WNW 14   Clear   68 48     49%     29.85        
Oct 21 03:20 WNW 14   Clear   68 49     50%     29.86        
Oct 21 03:15 NW 14   Clear   68 49     50%     29.85        
Oct 21 03:10 WNW 16   Clear   68 49     50%     29.85        
Oct 21 03:05 NW 17   Clear   68 49     50%     29.85        
Oct 21 03:00 WNW 14   Clear   68 49     50%     29.85        
Oct 21 02:55 WNW 16   Clear   68 49     51%     29.85        
Oct 21 02:50 NW 16   Clear   68 49     50%     29.85        
Oct 21 02:45 NW 20   Clear and Windy   69 50     51%     29.85        
Oct 21 02:40 NW 19   Clear   69 50     51%     29.85        
Oct 21 02:35 WNW 18   Clear   69 50     50%     29.85        
Oct 21 02:30 NW 16   Clear   69 50     51%     29.85        
Oct 21 02:25 NW 12   Clear   69 50     50%     29.85        
Oct 21 02:20 WNW 14   Clear   69 49     49%     29.85        
Oct 21 02:15 NW 16   Clear   69 49     49%     29.85        
Oct 21 02:10 WNW 16   Clear   69 49     49%     29.84        
Oct 21 02:05 WNW 17   Clear   69 49     49%     29.83        
Oct 21 02:00 WNW 17   Clear   69 50     50%     29.84        
Oct 21 01:55 NW 16   Clear   69 50     50%     29.84        
Oct 21 01:50 NW 17   Clear   69 50     50%     29.84        
Oct 21 01:45 NW 14   Clear   69 50     50%     29.83        
Oct 21 01:40 NW 19   Clear   69 50     50%     29.84        
Oct 21 01:35 WNW 18   Clear   69 50     50%     29.83        
Oct 21 01:30 NW 18   Clear   69 50     50%     29.83        
Oct 21 01:25 NW 17   Clear   69 50     51%     29.83        
Oct 21 01:20 NW 18   Clear   70 51     51%     29.83        
Oct 21 01:15 NW 18   Clear   70 51     51%     29.83        
Oct 21 01:10     Clear   70 51     51%     29.83        
Oct 21 01:05 WNW 21   Clear and Windy   70 51     51%     29.83        
Oct 21 01:00 NW 18   Clear   69 50     51%     29.83        
Oct 21 00:55 NW 20   Clear and Windy   69 50     51%     29.82        
Oct 21 00:50     Clear   69 51     52%     29.83        
Oct 21 00:45 NW 17   Clear   69 51     52%     29.83        
Oct 21 00:40 NW 16   Clear   70 52     52%     29.83        
Oct 21 00:35 NW 16   Clear   70 52     52%     29.83        
Oct 21 00:30 NW 18   Clear   70 50     50%     29.83        
Oct 21 00:25     Clear   70 51     51%     29.82        
Oct 21 00:20 NW 21   Clear and Windy   70 52     52%     29.82        
Oct 21 00:15     Clear   70 51     51%     29.81        
Oct 21 00:10 NW 20   Clear and Windy   70 51     51%     29.8        
Oct 21 00:05 NW 18   Clear   70 51     51%     29.8        
Oct 21 00:00 NW 18   Clear   70 51     51%     29.8        
Oct 20 23:55     Clear   70 51     51%     29.79        
Oct 20 23:50 NW 17   Clear   70 50     50%     29.79        
Oct 20 23:45 NW 18   Clear   70 50     50%     29.79        
Oct 20 23:40 NW 21   Clear and Windy   70 50     50%     29.78        
Oct 20 23:35 NW 18   Clear   70 50     50%     29.79        
Oct 20 23:30 NW 17   Clear   70 50     50%     29.79        
Oct 20 23:25 NW 20   Clear and Windy   70 50     50%     29.79        
Oct 20 23:20 NW 17   Clear   70 50     50%     29.79        
Oct 20 23:15 NW 18   Clear   70 50     50%     29.79        
Oct 20 23:10 NW 18   Clear   70 50     50%     29.79        
Oct 20 23:05 NW 19   Clear   70 50     50%     29.79        
Oct 20 23:00 NW 20   Clear and Windy   71 51     50%   70 29.79        
Oct 20 22:55     Clear   71 51     50%   70 29.78        
Oct 20 22:50 NW 22   Clear and Windy   71 51     50%   70 29.78        
Oct 20 22:45     Clear   70 50     50%     29.77        
Oct 20 22:40 NW 18   Clear   71 52     51%   70 29.77        
Oct 20 22:35 NW 18   Clear   71 51     50%   70 29.77        
Oct 20 22:30 NW 20   Clear and Windy   71 51     50%   70 29.77        
Oct 20 22:25     Clear   71 51     50%   70 29.77        
Oct 20 22:20 NW 18   Clear   71 51     50%   70 29.77        
Oct 20 22:15 NW 17   Clear   71 51     49%   70 29.76        
Oct 20 22:10 NW 16   Clear   71 51     49%   70 29.76        
Oct 20 22:05 NW 16   Clear   71 51     50%   70 29.77        
Oct 20 22:00 NW 14   Clear   71 51     50%   70 29.77        
Oct 20 21:55 NW 14   Clear   71 51     49%   70 29.77        
Oct 20 21:50 NW 17   Clear   71 50     48%   70 29.77        
Oct 20 21:45 NW 16   Clear   71 51     49%   70 29.76        
Oct 20 21:40 NW 15   Clear   71 51     49%   70 29.75        
Oct 20 21:35 NW 17   Clear   71 50     48%   70 29.76        
Oct 20 21:30 NW 13   Clear   72 51     48%   71 29.76        
Oct 20 21:25 NW 19   Clear   72 51     48%   71 29.76        
Oct 20 21:20 NW 17   Clear   72 51     48%   71 29.75        
Oct 20 21:15 NW 17   Clear   72 51     48%   71 29.75        
Oct 20 21:10 NW 13   Clear   72 51     48%   71 29.75        
Oct 20 21:05 WNW 17   Clear   72 51     48%   71 29.75        
Oct 20 21:00 WNW 17   Clear   72 51     48%   71 29.75        
Oct 20 20:55 NW 17   Clear   72 51     47%   71 29.75        
Oct 20 20:50 NW 17   Clear   72 51     47%   71 29.75        
Oct 20 20:45 NW 17   Clear   72 51     47%   71 29.75        
Oct 20 20:40 NW 16   Clear   72 51     47%   71 29.74        
Oct 20 20:35 NW 19   Clear   73 52     47%   72 29.74        
Oct 20 20:30 NW 13   Clear   73 52     47%   72 29.74        
Oct 20 20:25 NW 15   Clear   73 51     46%   72 29.74        
Oct 20 20:20 NW 21   Clear and Windy   73 50     45%   72 29.74        
Oct 20 20:15 NW 18   Clear   73 51     46%   72 29.74        
Oct 20 20:10 NW 21   Clear and Windy   73 50     44%   72 29.74        
Oct 20 20:05 NW 18   Clear   73 50     45%   72 29.73        
Oct 20 20:00 NW 18   Clear   73 50     45%   72 29.74        
Oct 20 19:55 WNW 14   Clear   74 51     44%   73 29.72        
Oct 20 19:50 NW 15   Clear   74 51     45%   73 29.72        
Oct 20 19:45 NW 20   Clear and Windy   74 51     44%   73 29.72        
Oct 20 19:40 NW 22   Clear and Windy   74 51     44%   73 29.72        
Oct 20 19:35 NW 17   Clear   74 51     44%   73 29.72        
Oct 20 19:30 NW 16   Clear   74 51     44%   73 29.72        
Oct 20 19:25 NW 17   Clear   74 51     44%   73 29.72        
Oct 20 19:20 NW 19   Clear   74 51     44%   73 29.72        
Oct 20 19:15 NW 17   Clear   74 51     44%   73 29.72        
Oct 20 19:10 NW 17   Clear   74 50     43%   73 29.72        
Oct 20 19:05 NW 16   Clear   74 50     43%   73 29.72        
Oct 20 19:00 NW 17   Clear   75 51     43%   74 29.72        
Oct 20 18:55 NW 19   Clear   75 51     43%   74 29.72        
Oct 20 18:50     Clear   75 51     43%   74 29.72        
Oct 20 18:45 NW 18   Clear   75 50     42%   74 29.71        
Oct 20 18:40 NW 18   Clear   75 50     41%   74 29.72        
Oct 20 18:35 WNW 19   Clear   75 50     42%   74 29.72        
Oct 20 18:30 NW 22   Clear and Windy   75 50     42%   74 29.71        
Oct 20 18:25 NW 22   Clear and Windy   75 50     42%   74 29.71        
Oct 20 18:20 WNW 18   Clear   75 50     41%   74 29.71        
Oct 20 18:15 NW 23   Clear and Windy   75 50     41%   74 29.7        
Oct 20 18:10     Clear   75 50     41%   74 29.7        
Oct 20 18:05 NW 19   Clear   75 50     41%   74 29.7        
Oct 20 18:00 WNW 22   Clear and Windy   76 50     40%   75 29.7        
Oct 20 17:55 WNW 21   Clear and Windy   76 50     40%   75 29.71        
Oct 20 17:50 WNW 24   Clear and Windy   76 50     40%   75 29.71        
Oct 20 17:45 NW 18   Clear   76 50     40%   75 29.71        
Oct 20 17:40 NW 21   Clear and Windy   76 49     39%   75 29.7        
Oct 20 17:35 NW 22   Clear and Windy   77 50     39%   76 29.7        
Oct 20 17:30 WNW 21   Clear and Windy   77 50     39%   76 29.69        
Oct 20 17:25 WNW 22   Clear and Windy   77 49     38%   76 29.69        
Oct 20 17:20 WNW 16   Clear   78 50     38%   77 29.69        
Oct 20 17:15 WNW 22   Clear and Windy   78 50     38%   77 29.69        
Oct 20 17:10 WNW 24   Clear and Windy   78 50     37%   77 29.69        
Oct 20 17:05 WNW 22   Clear and Windy   78 49     36%   77 29.7        
Oct 20 17:00 WNW 19   Clear   78 50     37%   77 29.7        
Oct 20 16:55 WNW 22   Clear and Windy   78 49     36%   77 29.7        
Oct 20 16:50 WNW 19   Clear   79 50     37%   78 29.71        
Oct 20 16:45 WNW 20   Clear and Windy   79 50     36%   78 29.71        
Oct 20 16:40 WNW 18   Clear   79 50     37%   78 29.71        
Oct 20 16:35 NW 25   Clear and Windy   79 50     36%   78 29.71        
Oct 20 16:30 WNW 25   Clear and Windy   79 50     36%   78 29.7        
Oct 20 16:25     Clear   79 50     37%   78 29.71        
Oct 20 16:20 WNW 28   Clear and Breezy   79 50     37%   78 29.7        
Oct 20 16:15 NW 26   Clear and Breezy   79 50     36%   78 29.7        
Oct 20 16:10 WNW 26   Clear and Breezy   79 50     36%   78 29.7        
Oct 20 16:05 WNW 24   Clear and Windy   80 50     35%   79 29.71        
Oct 20 16:00 WNW 24   Clear and Windy   80 49     34%   79 29.71        
Oct 20 15:55 WNW 25   Clear and Windy   80 48     33%   79 29.71        
Oct 20 15:50 NW 22   Clear and Windy   80 48     33%   79 29.71        
Oct 20 15:45 WNW 18   Clear   81 49     33%   80 29.71        
Oct 20 15:40 WNW 20   Clear and Windy   81 49     33%   80 29.7        
Oct 20 15:35 NW 25   Clear and Windy   81 49     33%   80 29.7        
Oct 20 15:30 WNW 25   Clear and Windy   81 48     32%   80 29.7        
Oct 20 15:25 NW 18   Clear   82 48     31%   81 29.7        
Oct 20 15:20 NW 21   Clear and Windy   82 47     30%   80 29.7        
Oct 20 15:15 WNW 21   Clear and Windy   82 48     31%   81 29.7        
Oct 20 15:10 NW 21   Clear and Windy   82 47     29%   80 29.69        
Oct 20 15:05 NW 20   Clear and Windy   82 48     31%   81 29.69        
Oct 20 15:00 WNW 24   Clear and Windy   82 47     29%   80 29.69        
Oct 20 14:55 NW 20   Clear and Windy   82 47     30%   80 29.7        
Oct 20 14:50 WNW 16   Clear   83 47     29%   81 29.7        
Oct 20 14:45 NW 18   Clear   83 47     29%   81 29.69        
Oct 20 14:40 NW 20   Clear and Windy   82 47     29%   80 29.71        
Oct 20 14:35 NW 15   Clear   82 47     30%   80 29.71        
Oct 20 14:30 WNW 11   Clear   82 47     29%   80 29.71        
Oct 20 14:25 NW 7   Clear   82 46     28%   80 29.71        
Oct 20 14:20 WNW 8   Clear   82 47     30%   80 29.7        
Oct 20 14:15 WNW 9   Clear   82 46     28%   80 29.71        
Oct 20 14:10 WNW 14   Clear   82 46     28%   80 29.71        
Oct 20 14:05 WNW 18   Clear   82 47     30%   80 29.71        
Oct 20 14:00 NNW 13   Clear   83 46     27%   81 29.71        
Oct 20 13:55 NW 14   Clear   83 47     29%   81 29.71        
Oct 20 13:50 NW 16   Clear   83 47     28%   81 29.71        
Oct 20 13:45 NW 11   Clear   82 46     28%   80 29.71        
Oct 20 13:40 WNW 24   Clear and Windy   82 47     29%   80 29.71        
Oct 20 13:35 NW 10   Clear   83 46     27%   81 29.72        
Oct 20 13:30 WNW 12   Clear   82 47     29%   80 29.72        
Oct 20 13:25 WNW 10   Clear   82 47     29%   80 29.72        
Oct 20 13:20 NW 13   Clear   82 47     29%   80 29.73        
Oct 20 13:15 WNW 17   Clear   81 47     30%   80 29.74        
Oct 20 13:10 WNW 9   Clear   82 47     30%   80 29.74        
Oct 20 13:05 NW 17   Clear   81 47     31%   80 29.73        
Oct 20 13:00 WNW 10   Clear   82 47     29%   80 29.74        
Oct 20 12:55 WNW 21   Clear and Windy   81 47     31%   80 29.74        
Oct 20 12:50 WNW 14   Clear   82 47     30%   80 29.74        
Oct 20 12:45 NW 16   Clear   82 47     30%   80 29.74        
Oct 20 12:40 NW 16   Clear   82 47     30%   80 29.74        
Oct 20 12:35 NW 10   Clear   81 47     30%   80 29.74        
Oct 20 12:30 NW 12   Clear   82 47     30%   80 29.75        
Oct 20 12:25 NW 12   Clear   81 47     30%   80 29.75        
Oct 20 12:20 NW 14   Clear   82 48     31%   81 29.75        
Oct 20 12:15 NW 9   Clear   82 48     31%   81 29.75        
Oct 20 12:10 WNW 12   Clear   82 48     31%   81 29.75        
Oct 20 12:05 NW 12   Clear   82 48     31%   81 29.75        
Oct 20 12:00 WNW 5   Clear   82 48     31%   81 29.75        
Oct 20 11:55 WNW 5   Clear   82 49     32%   81 29.75        
Oct 20 11:50 NW 4   Clear   81 49     33%   80 29.75        
Oct 20 11:45 NW 9   Clear   81 48     32%   80 29.76        
Oct 20 11:40 NW 7   Clear   81 49     33%   80 29.76        
Oct 20 11:35 NNW 9   Clear   80 49     34%   79 29.76        
Jun 12 06:10 NNW 12   Clear   64 47     53%     29.86        
Jun 12 06:00 NNW 12   Clear   64 47     53%     29.85        
Jun 12 05:00     Clear   65 45     49%     29.83        
Jun 12 04:00     Clear   66 45     47%     29.82        
Jun 12 03:45     Clear   66 44     45%     29.82        
Jun 12 03:40 NW 17   Clear   66 44     45%     29.81        
Jun 12 03:30 NW 16   Clear   66 45     46%     29.82        
Notice The following observation data may not be complete
Jun 12 03:25     Clear            %              
Jun 12 03:05 WNW 15   Clear   66 44     45%     29.82        
Jun 12 02:45 NW 16   Clear   66 44     45%     29.81        
Jun 12 02:15 NW 16   Clear   67 44     44%     29.8        
Notice The following observation data may not be complete
Jun 12 00:55     Clear            %              
Jun 12 00:30     Clear   67 47     49%     29.8        
Jun 12 00:25 NW 18   Clear   67 47     49%     29.8        
Jun 11 23:45 NW 20   Clear and Windy   67 47     48%     29.8        
Jun 11 23:25 WNW 20   Clear and Windy   68 47     47%     29.8        
Jun 11 21:50 NW 20   Clear and Windy   68 47     47%     29.79        
Jun 11 21:40 NW 20   Clear and Windy   69 47     46%     29.78        
Jun 11 21:30 NW 17   Clear   69 47     45%     29.77        
Jun 11 21:25     Clear   70 47     44%     29.77        
Jun 11 21:20 NW 15   Clear   70 47     44%     29.76        
Jun 11 21:05 NW 16   Clear   70 47     44%     29.75        
Jun 11 21:00 NW 17   Clear   71 48     44%   70 29.75        
Jun 11 20:50 NW 17   Clear   71 47     42%   70 29.74        
Jun 11 18:55 NW 16   Clear   79 44     29%   78 29.69        
Jun 11 18:40 NW 18   Clear   80 45     29%   79 29.69        
Jun 11 16:45 NW 11   Clear   85 44     24%   82 29.68        
Jun 11 15:55 NW 18   Clear   85 46     26%   82 29.69        
Jun 11 15:50 NW 17   Clear   85 45     25%   82 29.69        
Jun 11 15:40 NW 16   Clear   85 46     26%   82 29.69        
Jun 11 15:35     Clear   85 45     25%   82 29.69        
Jun 11 15:30 WNW 21   Clear and Windy   85 45     25%   82 29.69        
Jun 11 15:25     Clear   85 45     25%   82 29.69        
Jun 11 15:20 WNW 12   Clear   86 45     24%   83 29.69        
Jun 11 15:10 WNW 19   Clear   85 46     26%   82 29.69        
Jun 11 15:05 NW 17   Clear   85 46     26%   82 29.69        
Jun 11 15:00 NW 18   Clear   85 46     26%   82 29.69        
Jun 11 14:35 NW 22   Clear and Windy   85 46     26%   82 29.7        
Jun 11 14:30 NW 17   Clear   85 45     25%   82 29.7        
Jun 11 13:30 WNW 17   Clear   83 47     29%   81 29.71        
Jun 11 13:15 NW 20   Clear and Windy   82 47     30%   80 29.71        
Jun 11 12:35 NW 17   Clear   81 48     32%   80 29.72        
Jun 11 12:30 WNW 16   Clear   81 49     33%   80 29.72        
Jun 11 11:15 WNW 10   Clear   80 49     34%   79 29.74        
Jun 11 10:10 WNW 13   Clear   77 48     36%   76 29.72        
Jun 11 09:15 NW 15   Clear   75 48     39%   74 29.72        
Jun 11 09:00 WNW 13   Clear   74 48     40%   73 29.72        
Jun 11 08:35 WNW 13   Clear   73 49     43%   72 29.72        
Jun 11 08:15 NW 10   Clear   71 48     44%   70 29.71        
Jun 11 07:55 NW 14   Clear   70 48     45%     29.71        
Jun 11 07:35 NW 17   Clear   69 48     47%     29.7        
Jun 11 07:05 WNW 16   Clear   68 48     48%     29.69        
Jun 11 06:15 WNW 14   Clear   66 45     47%     29.67        
Jun 11 05:35     Clear   66 47     50%     29.66        
Jun 11 05:05 WNW 16   Clear   66 46     49%     29.65        
Jun 11 04:45     Clear   66 47     51%     29.65        
Jun 11 04:25 WNW 18   Clear   66 47     51%     29.64        
Jun 11 03:35     Clear   66 49     54%     29.63        
Jun 11 03:20 NW 19   Clear   66 49     54%     29.63        
Jun 11 03:00 NW 19   Clear   66 48     53%     29.62        
Jun 11 01:35     Clear   67 50     54%     29.63        
Jun 11 01:00 WNW 21   Clear and Windy   69 50     50%     29.63        
Jun 11 00:45     Clear   70 49     48%     29.63        
Jun 11 00:30 WNW 17   Clear   71 49     45%   70 29.63        
Jun 11 00:15 WNW 25   Clear and Windy   72 48     43%   71 29.63        
Jun 11 00:10 NW 18   Clear   72 48     43%   71 29.63        
Jun 11 00:05 NW 17   Clear   72 49     44%   71 29.63        
Jun 10 22:10 NW 20   Clear and Windy   74 49     42%   73 29.62        
Jun 10 21:35     Clear   76 49     39%   75 29.61        
Jun 10 21:00 NW 18   Clear   78 50     37%   77 29.6        
Jun 10 20:30 WNW 20   Clear and Windy   78 50     38%   77 29.6        
Jun 10 20:20 NW 16   Clear   79 50     37%   78 29.6        
Jun 10 20:05 NW 15   Clear   79 51     38%   78 29.6        
Jun 10 19:25 NW 16   Clear   81 52     36%   80 29.6        
Jun 10 18:55 NNW 20   Clear and Windy   83 52     34%   82 29.6        
Jun 10 17:55 NW 12   Clear   89 47     24%   86 29.59        
Jun 10 17:35 WNW 16   Clear   90 46     22%   87 29.6        
Jun 10 16:45 NW 14   Clear   92 41     17%   88 29.59        
Jun 10 16:25 NNW 15   Clear   93 38     15%   89 29.6        
Jun 10 16:10 NW 14   Clear   93 38     15%   89 29.6        
Jun 10 12:30 WNW 10   Clear   88 46     23%   85 29.69        
Notice The following observation data may not be complete
Jun 10 11:25     Clear            %              
Jun 10 11:10 NW 9   Clear   85 47     27%   83 29.7        
Jun 10 10:35 NW 10   Clear   84 48     29%   82 29.7        
Jun 10 10:30 WNW 9   Clear   84 48     29%   82 29.7        
Jun 10 10:00 WNW 8   Clear   83 50     32%   81 29.7        
Jun 10 08:50 NW 10   Clear   80 49     34%   79 29.7        
Jun 10 08:20 WNW 10   Clear   79 50     36%   78 29.7        
Jun 10 07:35     Clear   77 49     37%   76 29.69        
Jun 10 06:40     Clear   75 46     36%   74 29.67        
Jun 10 06:10     Clear   75 47     37%   74 29.67        
Jun 10 04:55 NW 13   Clear   75 47     37%   74 29.66        
Jun 10 04:20 NW 12   Clear   75 49     40%   74 29.66        
Jun 10 04:15     Clear   75 50     42%   74 29.66        
Jun 10 01:45     Clear   74 54     49%   73 29.67        
Jun 10 01:15     Clear   75 53     46%   74 29.66        
Jun 09 21:00 NW 17   Clear   82 52     36%   81 29.65        
Notice The following observation data may not be complete
Jun 09 20:10     Clear            %              
Jun 09 18:50 WNW 16   Clear   92 51     25%   89 29.62        
Jun 09 18:30     Clear   93 51     24%   90 29.62        
Jun 09 18:20 NW 14   Clear   94 52     24%   91 29.62        
Jun 09 18:05 NW 10   Clear   95 51     23%   92 29.62        
Jun 09 17:10 WNW 14   Clear   96 52     23%   93 29.64        
Jun 09 16:30 NW 17   Clear   97 52     22%   94 29.65        
Jun 09 16:25 NW 9   Clear   97 51     21%   94 29.65        
Jun 09 15:50 NW 15   Clear   97 52     22%   94 29.66        
Jun 09 15:35 NW 17   Clear   97 52     22%   94 29.67        
Jun 09 14:35 NW 16   Clear   98 49     19%   95 29.69        
Jun 09 14:25 NW 8   Clear   98 49     19%   95 29.69        
Jun 09 14:20 NW 16   Clear   97 48     19%   94 29.69        
Jun 09 13:25 NNE 3   Clear   96 44     17%   92 29.7        
Jun 09 13:00 NNW 9   Clear   97 45     17%   93 29.72        
Jun 09 12:25 WNW 6   Clear   96 44     17%   92 29.73        
Jun 09 12:15 WNW 5   Clear   95 43     17%   91 29.73        
Jun 09 10:15 WSW 3   Clear   90 41     18%   86 29.75        
Notice The following observation data may not be complete
Jun 09 09:55     Clear            %              
Jun 09 09:00 W 4   Clear   86 47     26%   83 29.77        
Jun 09 08:15 NW 13   Clear   82 47     30%   80 29.76        
Jun 09 06:35 WNW 14   Clear   77 47     35%   76 29.75        
Jun 09 03:30     Clear   76 49     39%   75 29.73        
Jun 09 03:10 NW 16   Clear   77 48     36%   76 29.73        
Notice The following observation data may not be complete
Jun 09 02:55     Clear            %              
Jun 09 02:25 NW 16   Clear   78 47     34%   77 29.73        
Jun 09 02:20     Clear   78 47     34%   77 29.73        
Jun 09 02:15     Clear   78 47     33%   77 29.73        
Jun 09 01:45 NW 18   Clear   78 45     31%   77 29.73        
Jun 09 01:25 WNW 15   Clear   79 45     30%   78 29.73        
Jun 09 01:15 NW 17   Clear   79 44     29%   78 29.73        
Jun 09 01:10     Clear   79 45     30%   78 29.73        
Jun 09 01:00 NW 17   Clear   79 46     31%   78 29.73        
Jun 09 00:45     Clear   79 46     31%   78 29.73        
Jun 09 00:25     Clear   80        %     29.74        
Jun 09 00:15 NW 17   Clear   80 45     29%   79 29.73        
Jun 08 23:45 NW 17   Clear   80 45     29%   79 29.74        
Jun 08 23:40     Clear   80 46     30%   79 29.74        
Jun 08 23:15 NW 18   Clear   81 47     30%   80 29.74        
Jun 08 22:50     Clear   82 46     28%   80 29.74        
Jun 08 22:45 WNW 19   Clear   82 46     28%   80 29.74        
Jun 08 22:25     Clear   83 42     24%   81 29.74        
Jun 08 21:45 NW 13   Clear   84 44     25%   82 29.73        
Jun 08 21:40 NW 15   Clear   84 44     25%   82 29.73        
Jun 08 21:35 NW 13   Clear   84 44     25%   82 29.73        
Jun 08 20:40 NW 12   Clear   85 49     29%   83 29.72        
Jun 08 20:10 NW 10   Clear   87 47     25%   84 29.72        
Jun 08 19:30 NW 14   Clear   89 47     24%   86 29.7        
Jun 08 19:25     Clear   89 47     24%   86 29.7        
Jun 08 19:10 NW 15   Clear   91 47     22%   88 29.7        
Notice The following observation data may not be complete
Jun 08 18:25     Clear            %              
Jun 08 17:50 WNW 15   Clear   96 43     16%   92 29.7        
Jun 08 17:40 NW 18   Clear   97 42     15%   93 29.7        
Notice The following observation data may not be complete
Jun 08 16:55     Clear            %              
Jun 08 15:05 WNW 8   Clear   100 42     14%   96 29.73        
Notice The following observation data may not be complete
Jun 08 12:55     Clear            %              
Notice The following observation data may not be complete
Jun 08 12:25     Clear            %              
Notice The following observation data may not be complete
Jun 08 10:25     Clear            %              
Jun 08 09:40 WSW 5   Clear   83 55     39%   82 29.86        
Notice The following observation data may not be complete
Jun 08 09:25     Clear            %              
Jun 08 08:05 W 3   Clear   78 52     40%   77 29.84        
Jun 08 07:15 WNW 9   Clear   76 52     43%   75 29.82        
Notice The following observation data may not be complete
Jun 08 02:25     Clear            %              
Jun 08 01:55 NW 12   Clear   76 54     46%   75 29.77        
Jun 08 01:30 NW 6   Clear   78 54     44%   78 29.77        
Jun 08 01:20 WNW 9   Clear   77 55     46%   77 29.76        
Jun 08 01:10 NW 8   Clear   78 55     45%   78 29.76        
Jun 08 00:55 NNW 3   Clear   78 55     45%   78 29.77        
Notice The following observation data may not be complete
Jun 07 23:40     Clear            %              
Jun 07 23:15 NW 5   Clear   81 54     40%   81 29.76        
Jun 07 22:35 NW 7   Clear   81 55     41%   81 29.76        
Jun 07 21:40 NW 9   Clear   84 54     36%   83 29.73        
Jun 07 19:20 WNW 9   Clear   94 54     26%   92 29.7        
Jun 07 17:55 E 6   Clear   100 44     15%   96 29.7        
Jun 07 17:00 ENE 3   Clear   99 47     17%   95 29.71        
Jun 07 14:45 SE 7   Clear   99 45     16%   95 29.77        
Jun 07 13:00 ESE 3   Clear   95 51     23%   92 29.81        
Jun 07 11:50 ESE 2   Clear   91 52     27%   88 29.82        
Jun 07 10:15 SE 5   Clear   87 54     33%   85 29.83        
Jun 07 10:05 E 5   Clear   88 54     31%   86 29.83        
Jun 07 09:20 WNW 2   Clear   86 56     36%   85 29.83        
Jun 07 09:00 W 2   Clear   84 57     40%   83 29.83        
Jun 07 07:55 W 3   Clear   79 58     48%   79 29.81        
Jun 07 07:20 WNW 6   Clear   76 57     52%   76 29.81        
Jun 07 06:30 WNW 4   Clear   74 57     55%   74 29.8        
Jun 06 13:15 ESE 6   Clear   100 49     18%   97 29.77        
Jun 06 11:25 SSE 4   Clear   94 53     25%   91 29.8        
Notice The following observation data may not be complete
Jun 06 09:55     Clear            %              
Jun 06 09:25 SE 3   Clear   88 52     29%   86 29.81        
Notice The following observation data may not be complete
Jun 06 06:40     Clear            %              
Jun 06 06:35 Calm   Clear   77 53     44%   76 29.79        
Jun 06 05:10 WNW 2   Clear   74 51     45%   73 29.76        
Jun 06 04:20 WNW 2   Clear   78 53     42%   77 29.75        
Jun 06 02:35 N 2   Clear   82 54     38%   81 29.74        
Jun 06 00:50 NNE 1   Clear   83 54     37%   82 29.75        
Jun 05 23:10 NNE 2   Clear   88 54     31%   86 29.74        
Jun 05 22:20 N 5   Clear   89 54     31%   87 29.73        
Jun 05 22:00 NNE 2   Clear   89 54     31%   87 29.71        
Jun 05 20:30 NW 11   Clear   95 52     24%   92 29.67        
Jun 05 19:55 NW 5   Clear   97 51     21%   94 29.66        
Jun 05 18:55 SE 5   Clear   102 49     17%   99 29.65        
Jun 05 18:10 SE 6   Clear   103 50     17%   100 29.64        
Jun 05 16:20 ESE 6   Clear   106 47     14%   102 29.65        
Jun 05 16:00 SSE 4   Clear   105 42     12%   100 29.65        
Jun 05 15:30 SSE 6   Clear   105 40     11%   100 29.66        
Jun 05 14:45 E 5   Clear   105 44     13%   101 29.68        
Jun 05 14:35 ESE 1   Clear   104 41     12%   99 29.68        
Jun 05 13:10 E 3   Clear   102 40     12%   97 29.71        
Jun 05 12:50 ESE 2   Clear   99 47     17%   95 29.71        
Jun 05 12:30 ENE 1   Clear   99 45     16%   95 29.72